Index of /20260419/WXO-DD/model_rdps/10km/06/038
Name Last modified Size Description
Parent Directory -
20260419T06Z_MSC_RDPS_AbsoluteVorticity_IsbL-0250_RLatLon0.09_PT038H.grib2 2026-04-19 08:50 601K
20260419T06Z_MSC_RDPS_AbsoluteVorticity_IsbL-0500_RLatLon0.09_PT038H.grib2 2026-04-19 08:50 681K
20260419T06Z_MSC_RDPS_AbsoluteVorticity_IsbL-0700_RLatLon0.09_PT038H.grib2 2026-04-19 08:50 631K
20260419T06Z_MSC_RDPS_AbsoluteVorticity_IsbL-0850_RLatLon0.09_PT038H.grib2 2026-04-19 08:50 796K
20260419T06Z_MSC_RDPS_AirTemp_AGL-120m_RLatLon0.09_PT038H.grib2 2026-04-19 08:50 383K
20260419T06Z_MSC_RDPS_AirTemp_AGL-2m_RLatLon0.09_PT038H.grib2 2026-04-19 08:50 637K
20260419T06Z_MSC_RDPS_AirTemp_AGL-40m_RLatLon0.09_PT038H.grib2 2026-04-19 08:50 394K
20260419T06Z_MSC_RDPS_AirTemp_AGL-80m_RLatLon0.09_PT038H.grib2 2026-04-19 08:50 388K
20260419T06Z_MSC_RDPS_AirTemp_IsbL-0001_RLatLon0.09_PT038H.grib2 2026-04-19 08:50 278K
20260419T06Z_MSC_RDPS_AirTemp_IsbL-0005_RLatLon0.09_PT038H.grib2 2026-04-19 08:50 336K
20260419T06Z_MSC_RDPS_AirTemp_IsbL-0010_RLatLon0.09_PT038H.grib2 2026-04-19 08:50 310K
20260419T06Z_MSC_RDPS_AirTemp_IsbL-0020_RLatLon0.09_PT038H.grib2 2026-04-19 08:50 330K
20260419T06Z_MSC_RDPS_AirTemp_IsbL-0030_RLatLon0.09_PT038H.grib2 2026-04-19 08:50 352K
20260419T06Z_MSC_RDPS_AirTemp_IsbL-0050_RLatLon0.09_PT038H.grib2 2026-04-19 08:50 330K
20260419T06Z_MSC_RDPS_AirTemp_IsbL-0100_RLatLon0.09_PT038H.grib2 2026-04-19 08:50 429K
20260419T06Z_MSC_RDPS_AirTemp_IsbL-0150_RLatLon0.09_PT038H.grib2 2026-04-19 08:50 423K
20260419T06Z_MSC_RDPS_AirTemp_IsbL-0175_RLatLon0.09_PT038H.grib2 2026-04-19 08:50 421K
20260419T06Z_MSC_RDPS_AirTemp_IsbL-0200_RLatLon0.09_PT038H.grib2 2026-04-19 08:50 423K
20260419T06Z_MSC_RDPS_AirTemp_IsbL-0225_RLatLon0.09_PT038H.grib2 2026-04-19 08:50 419K
20260419T06Z_MSC_RDPS_AirTemp_IsbL-0250_RLatLon0.09_PT038H.grib2 2026-04-19 08:50 421K
20260419T06Z_MSC_RDPS_AirTemp_IsbL-0275_RLatLon0.09_PT038H.grib2 2026-04-19 08:50 399K
20260419T06Z_MSC_RDPS_AirTemp_IsbL-0300_RLatLon0.09_PT038H.grib2 2026-04-19 08:50 403K
20260419T06Z_MSC_RDPS_AirTemp_IsbL-0350_RLatLon0.09_PT038H.grib2 2026-04-19 08:50 416K
20260419T06Z_MSC_RDPS_AirTemp_IsbL-0400_RLatLon0.09_PT038H.grib2 2026-04-19 08:50 420K
20260419T06Z_MSC_RDPS_AirTemp_IsbL-0450_RLatLon0.09_PT038H.grib2 2026-04-19 08:50 396K
20260419T06Z_MSC_RDPS_AirTemp_IsbL-0500_RLatLon0.09_PT038H.grib2 2026-04-19 08:50 411K
20260419T06Z_MSC_RDPS_AirTemp_IsbL-0550_RLatLon0.09_PT038H.grib2 2026-04-19 08:50 435K
20260419T06Z_MSC_RDPS_AirTemp_IsbL-0600_RLatLon0.09_PT038H.grib2 2026-04-19 08:50 455K
20260419T06Z_MSC_RDPS_AirTemp_IsbL-0650_RLatLon0.09_PT038H.grib2 2026-04-19 08:50 472K
20260419T06Z_MSC_RDPS_AirTemp_IsbL-0700_RLatLon0.09_PT038H.grib2 2026-04-19 08:50 500K
20260419T06Z_MSC_RDPS_AirTemp_IsbL-0750_RLatLon0.09_PT038H.grib2 2026-04-19 08:50 426K
20260419T06Z_MSC_RDPS_AirTemp_IsbL-0800_RLatLon0.09_PT038H.grib2 2026-04-19 08:50 472K
20260419T06Z_MSC_RDPS_AirTemp_IsbL-0850_RLatLon0.09_PT038H.grib2 2026-04-19 08:50 512K
20260419T06Z_MSC_RDPS_AirTemp_IsbL-0875_RLatLon0.09_PT038H.grib2 2026-04-19 08:50 524K
20260419T06Z_MSC_RDPS_AirTemp_IsbL-0900_RLatLon0.09_PT038H.grib2 2026-04-19 08:50 529K
20260419T06Z_MSC_RDPS_AirTemp_IsbL-0925_RLatLon0.09_PT038H.grib2 2026-04-19 08:50 528K
20260419T06Z_MSC_RDPS_AirTemp_IsbL-0950_RLatLon0.09_PT038H.grib2 2026-04-19 08:50 531K
20260419T06Z_MSC_RDPS_AirTemp_IsbL-0970_RLatLon0.09_PT038H.grib2 2026-04-19 08:50 529K
20260419T06Z_MSC_RDPS_AirTemp_IsbL-0985_RLatLon0.09_PT038H.grib2 2026-04-19 08:50 521K
20260419T06Z_MSC_RDPS_AirTemp_IsbL-1000_RLatLon0.09_PT038H.grib2 2026-04-19 08:50 524K
20260419T06Z_MSC_RDPS_AirTemp_IsbL-1015_RLatLon0.09_PT038H.grib2 2026-04-19 08:50 520K
20260419T06Z_MSC_RDPS_Albedo_Sfc_RLatLon0.09_PT038H.grib2 2026-04-19 08:50 168K
20260419T06Z_MSC_RDPS_CAPE_Sfc_RLatLon0.09_PT038H.grib2 2026-04-19 08:50 1.7M
20260419T06Z_MSC_RDPS_CIN_Sfc_RLatLon0.09_PT038H.grib2 2026-04-19 08:50 1.1M
20260419T06Z_MSC_RDPS_CloudWater_EAtm_RLatLon0.09_PT038H.grib2 2026-04-19 08:50 218K
20260419T06Z_MSC_RDPS_ConvectivePrecip-Accum_Sfc_RLatLon0.09_PT038H.grib2 2026-04-19 08:50 1.0M
20260419T06Z_MSC_RDPS_DewPointDepression_AGL-2m_RLatLon0.09_PT038H.grib2 2026-04-19 08:50 420K
20260419T06Z_MSC_RDPS_DewPointDepression_IsbL-0001_RLatLon0.09_PT038H.grib2 2026-04-19 08:50 193
20260419T06Z_MSC_RDPS_DewPointDepression_IsbL-0005_RLatLon0.09_PT038H.grib2 2026-04-19 08:50 193
20260419T06Z_MSC_RDPS_DewPointDepression_IsbL-0010_RLatLon0.09_PT038H.grib2 2026-04-19 08:50 193
20260419T06Z_MSC_RDPS_DewPointDepression_IsbL-0020_RLatLon0.09_PT038H.grib2 2026-04-19 08:50 193
20260419T06Z_MSC_RDPS_DewPointDepression_IsbL-0030_RLatLon0.09_PT038H.grib2 2026-04-19 08:50 193
20260419T06Z_MSC_RDPS_DewPointDepression_IsbL-0050_RLatLon0.09_PT038H.grib2 2026-04-19 08:50 98K
20260419T06Z_MSC_RDPS_DewPointDepression_IsbL-0100_RLatLon0.09_PT038H.grib2 2026-04-19 08:50 125K
20260419T06Z_MSC_RDPS_DewPointDepression_IsbL-0150_RLatLon0.09_PT038H.grib2 2026-04-19 08:50 153K
20260419T06Z_MSC_RDPS_DewPointDepression_IsbL-0175_RLatLon0.09_PT038H.grib2 2026-04-19 08:50 188K
20260419T06Z_MSC_RDPS_DewPointDepression_IsbL-0200_RLatLon0.09_PT038H.grib2 2026-04-19 08:50 225K
20260419T06Z_MSC_RDPS_DewPointDepression_IsbL-0225_RLatLon0.09_PT038H.grib2 2026-04-19 08:50 259K
20260419T06Z_MSC_RDPS_DewPointDepression_IsbL-0250_RLatLon0.09_PT038H.grib2 2026-04-19 08:50 290K
20260419T06Z_MSC_RDPS_DewPointDepression_IsbL-0275_RLatLon0.09_PT038H.grib2 2026-04-19 08:50 298K
20260419T06Z_MSC_RDPS_DewPointDepression_IsbL-0300_RLatLon0.09_PT038H.grib2 2026-04-19 08:50 318K
20260419T06Z_MSC_RDPS_DewPointDepression_IsbL-0350_RLatLon0.09_PT038H.grib2 2026-04-19 08:50 330K
20260419T06Z_MSC_RDPS_DewPointDepression_IsbL-0400_RLatLon0.09_PT038H.grib2 2026-04-19 08:50 346K
20260419T06Z_MSC_RDPS_DewPointDepression_IsbL-0450_RLatLon0.09_PT038H.grib2 2026-04-19 08:50 363K
20260419T06Z_MSC_RDPS_DewPointDepression_IsbL-0500_RLatLon0.09_PT038H.grib2 2026-04-19 08:50 379K
20260419T06Z_MSC_RDPS_DewPointDepression_IsbL-0550_RLatLon0.09_PT038H.grib2 2026-04-19 08:50 394K
20260419T06Z_MSC_RDPS_DewPointDepression_IsbL-0600_RLatLon0.09_PT038H.grib2 2026-04-19 08:50 404K
20260419T06Z_MSC_RDPS_DewPointDepression_IsbL-0650_RLatLon0.09_PT038H.grib2 2026-04-19 08:50 404K
20260419T06Z_MSC_RDPS_DewPointDepression_IsbL-0700_RLatLon0.09_PT038H.grib2 2026-04-19 08:50 413K
20260419T06Z_MSC_RDPS_DewPointDepression_IsbL-0750_RLatLon0.09_PT038H.grib2 2026-04-19 08:50 436K
20260419T06Z_MSC_RDPS_DewPointDepression_IsbL-0800_RLatLon0.09_PT038H.grib2 2026-04-19 08:50 466K
20260419T06Z_MSC_RDPS_DewPointDepression_IsbL-0850_RLatLon0.09_PT038H.grib2 2026-04-19 08:50 478K
20260419T06Z_MSC_RDPS_DewPointDepression_IsbL-0875_RLatLon0.09_PT038H.grib2 2026-04-19 08:50 474K
20260419T06Z_MSC_RDPS_DewPointDepression_IsbL-0900_RLatLon0.09_PT038H.grib2 2026-04-19 08:50 466K
20260419T06Z_MSC_RDPS_DewPointDepression_IsbL-0925_RLatLon0.09_PT038H.grib2 2026-04-19 08:50 456K
20260419T06Z_MSC_RDPS_DewPointDepression_IsbL-0950_RLatLon0.09_PT038H.grib2 2026-04-19 08:50 450K
20260419T06Z_MSC_RDPS_DewPointDepression_IsbL-0970_RLatLon0.09_PT038H.grib2 2026-04-19 08:50 443K
20260419T06Z_MSC_RDPS_DewPointDepression_IsbL-0985_RLatLon0.09_PT038H.grib2 2026-04-19 08:50 438K
20260419T06Z_MSC_RDPS_DewPointDepression_IsbL-1000_RLatLon0.09_PT038H.grib2 2026-04-19 08:50 433K
20260419T06Z_MSC_RDPS_DewPointDepression_IsbL-1015_RLatLon0.09_PT038H.grib2 2026-04-19 08:50 425K
20260419T06Z_MSC_RDPS_DewPoint_AGL-2m_RLatLon0.09_PT038H.grib2 2026-04-19 08:50 408K
20260419T06Z_MSC_RDPS_DownwardLongwaveRadiationFlux-Accum_Sfc_RLatLon0.09_PT038H.grib2 2026-04-19 08:50 494K
20260419T06Z_MSC_RDPS_DownwardShortwaveRadiationFlux-Accum_NTAtm_RLatLon0.09_PT038H.grib2 2026-04-19 08:50 101K
20260419T06Z_MSC_RDPS_DownwardShortwaveRadiationFlux-Accum_Sfc_RLatLon0.09_PT038H.grib2 2026-04-19 08:50 552K
20260419T06Z_MSC_RDPS_FreezingRain-Accum1h_Sfc_RLatLon0.09_PT038H.grib2 2026-04-19 08:50 13K
20260419T06Z_MSC_RDPS_FreezingRain-Accum_Sfc_RLatLon0.09_PT038H.grib2 2026-04-19 08:50 89K
20260419T06Z_MSC_RDPS_GeopotentialHeight_IsbL-0001_RLatLon0.09_PT038H.grib2 2026-04-19 08:50 214K
20260419T06Z_MSC_RDPS_GeopotentialHeight_IsbL-0005_RLatLon0.09_PT038H.grib2 2026-04-19 08:50 271K
20260419T06Z_MSC_RDPS_GeopotentialHeight_IsbL-0010_RLatLon0.09_PT038H.grib2 2026-04-19 08:50 318K
20260419T06Z_MSC_RDPS_GeopotentialHeight_IsbL-0020_RLatLon0.09_PT038H.grib2 2026-04-19 08:50 313K
20260419T06Z_MSC_RDPS_GeopotentialHeight_IsbL-0030_RLatLon0.09_PT038H.grib2 2026-04-19 08:50 315K
20260419T06Z_MSC_RDPS_GeopotentialHeight_IsbL-0050_RLatLon0.09_PT038H.grib2 2026-04-19 08:50 348K
20260419T06Z_MSC_RDPS_GeopotentialHeight_IsbL-0100_RLatLon0.09_PT038H.grib2 2026-04-19 08:50 292K
20260419T06Z_MSC_RDPS_GeopotentialHeight_IsbL-0150_RLatLon0.09_PT038H.grib2 2026-04-19 08:50 263K
20260419T06Z_MSC_RDPS_GeopotentialHeight_IsbL-0175_RLatLon0.09_PT038H.grib2 2026-04-19 08:50 266K
20260419T06Z_MSC_RDPS_GeopotentialHeight_IsbL-0200_RLatLon0.09_PT038H.grib2 2026-04-19 08:50 267K
20260419T06Z_MSC_RDPS_GeopotentialHeight_IsbL-0225_RLatLon0.09_PT038H.grib2 2026-04-19 08:50 268K
20260419T06Z_MSC_RDPS_GeopotentialHeight_IsbL-0250_RLatLon0.09_PT038H.grib2 2026-04-19 08:50 268K
20260419T06Z_MSC_RDPS_GeopotentialHeight_IsbL-0275_RLatLon0.09_PT038H.grib2 2026-04-19 08:50 267K
20260419T06Z_MSC_RDPS_GeopotentialHeight_IsbL-0300_RLatLon0.09_PT038H.grib2 2026-04-19 08:50 266K
20260419T06Z_MSC_RDPS_GeopotentialHeight_IsbL-0350_RLatLon0.09_PT038H.grib2 2026-04-19 08:50 233K
20260419T06Z_MSC_RDPS_GeopotentialHeight_IsbL-0400_RLatLon0.09_PT038H.grib2 2026-04-19 08:50 230K
20260419T06Z_MSC_RDPS_GeopotentialHeight_IsbL-0450_RLatLon0.09_PT038H.grib2 2026-04-19 08:50 301K
20260419T06Z_MSC_RDPS_GeopotentialHeight_IsbL-0500_RLatLon0.09_PT038H.grib2 2026-04-19 08:50 297K
20260419T06Z_MSC_RDPS_GeopotentialHeight_IsbL-0550_RLatLon0.09_PT038H.grib2 2026-04-19 08:50 294K
20260419T06Z_MSC_RDPS_GeopotentialHeight_IsbL-0600_RLatLon0.09_PT038H.grib2 2026-04-19 08:50 290K
20260419T06Z_MSC_RDPS_GeopotentialHeight_IsbL-0650_RLatLon0.09_PT038H.grib2 2026-04-19 08:50 263K
20260419T06Z_MSC_RDPS_GeopotentialHeight_IsbL-0700_RLatLon0.09_PT038H.grib2 2026-04-19 08:50 262K
20260419T06Z_MSC_RDPS_GeopotentialHeight_IsbL-0750_RLatLon0.09_PT038H.grib2 2026-04-19 08:50 264K
20260419T06Z_MSC_RDPS_GeopotentialHeight_IsbL-0800_RLatLon0.09_PT038H.grib2 2026-04-19 08:50 355K
20260419T06Z_MSC_RDPS_GeopotentialHeight_IsbL-0850_RLatLon0.09_PT038H.grib2 2026-04-19 08:50 361K
20260419T06Z_MSC_RDPS_GeopotentialHeight_IsbL-0875_RLatLon0.09_PT038H.grib2 2026-04-19 08:50 364K
20260419T06Z_MSC_RDPS_GeopotentialHeight_IsbL-0900_RLatLon0.09_PT038H.grib2 2026-04-19 08:50 368K
20260419T06Z_MSC_RDPS_GeopotentialHeight_IsbL-0925_RLatLon0.09_PT038H.grib2 2026-04-19 08:50 371K
20260419T06Z_MSC_RDPS_GeopotentialHeight_IsbL-0950_RLatLon0.09_PT038H.grib2 2026-04-19 08:50 374K
20260419T06Z_MSC_RDPS_GeopotentialHeight_IsbL-0970_RLatLon0.09_PT038H.grib2 2026-04-19 08:50 381K
20260419T06Z_MSC_RDPS_GeopotentialHeight_IsbL-0985_RLatLon0.09_PT038H.grib2 2026-04-19 08:50 391K
20260419T06Z_MSC_RDPS_GeopotentialHeight_IsbL-1000_RLatLon0.09_PT038H.grib2 2026-04-19 08:50 406K
20260419T06Z_MSC_RDPS_GeopotentialHeight_IsbL-1015_RLatLon0.09_PT038H.grib2 2026-04-19 08:50 421K
20260419T06Z_MSC_RDPS_Humidex_Sfc_RLatLon0.09_PT038H.grib2 2026-04-19 08:50 2.4M
20260419T06Z_MSC_RDPS_IcePellets-Accum1h_Sfc_RLatLon0.09_PT038H.grib2 2026-04-19 08:50 5.4K
20260419T06Z_MSC_RDPS_IcePellets-Accum_Sfc_RLatLon0.09_PT038H.grib2 2026-04-19 08:50 26K
20260419T06Z_MSC_RDPS_KIndex_Sfc_RLatLon0.09_PT038H.grib2 2026-04-19 08:50 2.5M
20260419T06Z_MSC_RDPS_LatentHeatNetFlux_Sfc_RLatLon0.09_PT038H.grib2 2026-04-19 08:50 303K
20260419T06Z_MSC_RDPS_LiftedIndex-MU-VT_IsbL-0500_RLatLon0.09_PT038H.grib2 2026-04-19 08:50 2.4M
20260419T06Z_MSC_RDPS_NetLongwaveRadiationFlux-Accum_Sfc_RLatLon0.09_PT038H.grib2 2026-04-19 08:50 505K
20260419T06Z_MSC_RDPS_NetShortwaveRadiationFlux-Accum_Sfc_RLatLon0.09_PT038H.grib2 2026-04-19 08:50 565K
20260419T06Z_MSC_RDPS_PlanetaryBoundaryLayerHeight_Sfc_RLatLon0.09_PT038H.grib2 2026-04-19 08:50 1.0M
20260419T06Z_MSC_RDPS_Precip-Accum1h_Sfc_RLatLon0.09_PT038H.grib2 2026-04-19 08:50 1.3M
20260419T06Z_MSC_RDPS_Precip-Accum_Sfc_RLatLon0.09_PT038H.grib2 2026-04-19 08:50 1.8M
20260419T06Z_MSC_RDPS_PrecipRate_Sfc_RLatLon0.09_PT038H.grib2 2026-04-19 08:50 193K
20260419T06Z_MSC_RDPS_PrecipType-Instant_Sfc_RLatLon0.09_PT038H.grib2 2026-04-19 08:50 604K
20260419T06Z_MSC_RDPS_Pressure-Trend3h_Sfc_RLatLon0.09_PT038H.grib2 2026-04-19 08:50 1.2M
20260419T06Z_MSC_RDPS_Pressure_MSL_RLatLon0.09_PT038H.grib2 2026-04-19 08:50 303K
20260419T06Z_MSC_RDPS_Pressure_PVU-1.5_RLatLon0.09_PT038H.grib2 2026-04-19 08:50 2.5M
20260419T06Z_MSC_RDPS_Pressure_PVU-1_RLatLon0.09_PT038H.grib2 2026-04-19 08:50 2.4M
20260419T06Z_MSC_RDPS_Pressure_PVU-2_RLatLon0.09_PT038H.grib2 2026-04-19 08:50 2.4M
20260419T06Z_MSC_RDPS_Pressure_Sfc_RLatLon0.09_PT038H.grib2 2026-04-19 08:50 503K
20260419T06Z_MSC_RDPS_RadiativeTemp_Sfc_RLatLon0.09_PT038H.grib2 2026-04-19 08:50 330K
20260419T06Z_MSC_RDPS_Rain-Accum1h_Sfc_RLatLon0.09_PT038H.grib2 2026-04-19 08:50 642K
20260419T06Z_MSC_RDPS_Rain-Accum_Sfc_RLatLon0.09_PT038H.grib2 2026-04-19 08:50 1.5M
20260419T06Z_MSC_RDPS_RelativeHumidity_AGL-2m_RLatLon0.09_PT038H.grib2 2026-04-19 08:50 1.0M
20260419T06Z_MSC_RDPS_RelativeHumidity_IsbL-0010_RLatLon0.09_PT038H.grib2 2026-04-19 08:50 555K
20260419T06Z_MSC_RDPS_RelativeHumidity_IsbL-0020_RLatLon0.09_PT038H.grib2 2026-04-19 08:50 575K
20260419T06Z_MSC_RDPS_RelativeHumidity_IsbL-0030_RLatLon0.09_PT038H.grib2 2026-04-19 08:50 549K
20260419T06Z_MSC_RDPS_RelativeHumidity_IsbL-0050_RLatLon0.09_PT038H.grib2 2026-04-19 08:50 386K
20260419T06Z_MSC_RDPS_RelativeHumidity_IsbL-0100_RLatLon0.09_PT038H.grib2 2026-04-19 08:50 268K
20260419T06Z_MSC_RDPS_RelativeHumidity_IsbL-0150_RLatLon0.09_PT038H.grib2 2026-04-19 08:50 378K
20260419T06Z_MSC_RDPS_RelativeHumidity_IsbL-0175_RLatLon0.09_PT038H.grib2 2026-04-19 08:50 472K
20260419T06Z_MSC_RDPS_RelativeHumidity_IsbL-0200_RLatLon0.09_PT038H.grib2 2026-04-19 08:50 558K
20260419T06Z_MSC_RDPS_RelativeHumidity_IsbL-0225_RLatLon0.09_PT038H.grib2 2026-04-19 08:50 623K
20260419T06Z_MSC_RDPS_RelativeHumidity_IsbL-0250_RLatLon0.09_PT038H.grib2 2026-04-19 08:50 680K
20260419T06Z_MSC_RDPS_RelativeHumidity_IsbL-0275_RLatLon0.09_PT038H.grib2 2026-04-19 08:50 700K
20260419T06Z_MSC_RDPS_RelativeHumidity_IsbL-0300_RLatLon0.09_PT038H.grib2 2026-04-19 08:50 738K
20260419T06Z_MSC_RDPS_RelativeHumidity_IsbL-0350_RLatLon0.09_PT038H.grib2 2026-04-19 08:50 760K
20260419T06Z_MSC_RDPS_RelativeHumidity_IsbL-0400_RLatLon0.09_PT038H.grib2 2026-04-19 08:50 780K
20260419T06Z_MSC_RDPS_RelativeHumidity_IsbL-0450_RLatLon0.09_PT038H.grib2 2026-04-19 08:50 803K
20260419T06Z_MSC_RDPS_RelativeHumidity_IsbL-0500_RLatLon0.09_PT038H.grib2 2026-04-19 08:50 829K
20260419T06Z_MSC_RDPS_RelativeHumidity_IsbL-0550_RLatLon0.09_PT038H.grib2 2026-04-19 08:50 854K
20260419T06Z_MSC_RDPS_RelativeHumidity_IsbL-0600_RLatLon0.09_PT038H.grib2 2026-04-19 08:50 874K
20260419T06Z_MSC_RDPS_RelativeHumidity_IsbL-0650_RLatLon0.09_PT038H.grib2 2026-04-19 08:50 882K
20260419T06Z_MSC_RDPS_RelativeHumidity_IsbL-0700_RLatLon0.09_PT038H.grib2 2026-04-19 08:50 895K
20260419T06Z_MSC_RDPS_RelativeHumidity_IsbL-0750_RLatLon0.09_PT038H.grib2 2026-04-19 08:50 944K
20260419T06Z_MSC_RDPS_RelativeHumidity_IsbL-0800_RLatLon0.09_PT038H.grib2 2026-04-19 08:50 1.0M
20260419T06Z_MSC_RDPS_RelativeHumidity_IsbL-0850_RLatLon0.09_PT038H.grib2 2026-04-19 08:50 1.0M
20260419T06Z_MSC_RDPS_RelativeHumidity_IsbL-0875_RLatLon0.09_PT038H.grib2 2026-04-19 08:50 1.1M
20260419T06Z_MSC_RDPS_RelativeHumidity_IsbL-0900_RLatLon0.09_PT038H.grib2 2026-04-19 08:50 1.1M
20260419T06Z_MSC_RDPS_RelativeHumidity_IsbL-0925_RLatLon0.09_PT038H.grib2 2026-04-19 08:50 1.1M
20260419T06Z_MSC_RDPS_RelativeHumidity_IsbL-0950_RLatLon0.09_PT038H.grib2 2026-04-19 08:50 1.1M
20260419T06Z_MSC_RDPS_RelativeHumidity_IsbL-0970_RLatLon0.09_PT038H.grib2 2026-04-19 08:50 1.1M
20260419T06Z_MSC_RDPS_RelativeHumidity_IsbL-0985_RLatLon0.09_PT038H.grib2 2026-04-19 08:50 1.0M
20260419T06Z_MSC_RDPS_RelativeHumidity_IsbL-1000_RLatLon0.09_PT038H.grib2 2026-04-19 08:50 1.0M
20260419T06Z_MSC_RDPS_RelativeHumidity_IsbL-1015_RLatLon0.09_PT038H.grib2 2026-04-19 08:50 1.0M
20260419T06Z_MSC_RDPS_Runoff-Accum_Sfc_RLatLon0.09_PT038H.grib2 2026-04-19 08:50 66K
20260419T06Z_MSC_RDPS_SWEATIndex_Sfc_RLatLon0.09_PT038H.grib2 2026-04-19 08:50 2.4M
20260419T06Z_MSC_RDPS_SeeingIndex_EAtm_RLatLon0.09_PT038H.grib2 2026-04-19 08:50 1.0M
20260419T06Z_MSC_RDPS_SensibleHeatNetFlux_Sfc_RLatLon0.09_PT038H.grib2 2026-04-19 08:50 372K
20260419T06Z_MSC_RDPS_ShowalterIndex_IsbL-0500_RLatLon0.09_PT038H.grib2 2026-04-19 08:50 2.6M
20260419T06Z_MSC_RDPS_SkyTransparencyIndex_EAtm_RLatLon0.09_PT038H.grib2 2026-04-19 08:50 737K
20260419T06Z_MSC_RDPS_Snow-Accum1h_Sfc_RLatLon0.09_PT038H.grib2 2026-04-19 08:50 455K
20260419T06Z_MSC_RDPS_Snow-Accum_Sfc_RLatLon0.09_PT038H.grib2 2026-04-19 08:50 706K
20260419T06Z_MSC_RDPS_SnowDensity_Sfc_RLatLon0.09_PT038H.grib2 2026-04-19 08:50 174K
20260419T06Z_MSC_RDPS_SnowDepth_Sfc_RLatLon0.09_PT038H.grib2 2026-04-19 08:50 712K
20260419T06Z_MSC_RDPS_SoilTemp_DBS-0to10cm_RLatLon0.09_PT038H.grib2 2026-04-19 08:50 235K
20260419T06Z_MSC_RDPS_SoilTemp_Sfc_RLatLon0.09_PT038H.grib2 2026-04-19 08:50 296K
20260419T06Z_MSC_RDPS_SoilVolumetricIceContent_Sfc_RLatLon0.09_PT038H.grib2 2026-04-19 08:50 172K
20260419T06Z_MSC_RDPS_SoilVolumetricWaterContent_DBS-0to10cm_RLatLon0.09_PT038H.grib2 2026-04-19 08:50 250K
20260419T06Z_MSC_RDPS_SoilVolumetricWaterContent_DBS-0to1cm_RLatLon0.09_PT038H.grib2 2026-04-19 08:50 338K
20260419T06Z_MSC_RDPS_SpecificHumidity_AGL-120m_RLatLon0.09_PT038H.grib2 2026-04-19 08:50 485K
20260419T06Z_MSC_RDPS_SpecificHumidity_AGL-2m_RLatLon0.09_PT038H.grib2 2026-04-19 08:50 654K
20260419T06Z_MSC_RDPS_SpecificHumidity_AGL-40m_RLatLon0.09_PT038H.grib2 2026-04-19 08:50 490K
20260419T06Z_MSC_RDPS_SpecificHumidity_AGL-80m_RLatLon0.09_PT038H.grib2 2026-04-19 08:50 486K
20260419T06Z_MSC_RDPS_SpecificHumidity_IsbL-0001_RLatLon0.09_PT038H.grib2 2026-04-19 08:50 326K
20260419T06Z_MSC_RDPS_SpecificHumidity_IsbL-0005_RLatLon0.09_PT038H.grib2 2026-04-19 08:50 341K
20260419T06Z_MSC_RDPS_SpecificHumidity_IsbL-0010_RLatLon0.09_PT038H.grib2 2026-04-19 08:50 377K
20260419T06Z_MSC_RDPS_SpecificHumidity_IsbL-0020_RLatLon0.09_PT038H.grib2 2026-04-19 08:50 371K
20260419T06Z_MSC_RDPS_SpecificHumidity_IsbL-0030_RLatLon0.09_PT038H.grib2 2026-04-19 08:50 437K
20260419T06Z_MSC_RDPS_SpecificHumidity_IsbL-0050_RLatLon0.09_PT038H.grib2 2026-04-19 08:50 470K
20260419T06Z_MSC_RDPS_SpecificHumidity_IsbL-0100_RLatLon0.09_PT038H.grib2 2026-04-19 08:50 407K
20260419T06Z_MSC_RDPS_SpecificHumidity_IsbL-0150_RLatLon0.09_PT038H.grib2 2026-04-19 08:50 438K
20260419T06Z_MSC_RDPS_SpecificHumidity_IsbL-0175_RLatLon0.09_PT038H.grib2 2026-04-19 08:50 427K
20260419T06Z_MSC_RDPS_SpecificHumidity_IsbL-0200_RLatLon0.09_PT038H.grib2 2026-04-19 08:50 443K
20260419T06Z_MSC_RDPS_SpecificHumidity_IsbL-0225_RLatLon0.09_PT038H.grib2 2026-04-19 08:50 550K
20260419T06Z_MSC_RDPS_SpecificHumidity_IsbL-0250_RLatLon0.09_PT038H.grib2 2026-04-19 08:50 542K
20260419T06Z_MSC_RDPS_SpecificHumidity_IsbL-0275_RLatLon0.09_PT038H.grib2 2026-04-19 08:50 458K
20260419T06Z_MSC_RDPS_SpecificHumidity_IsbL-0300_RLatLon0.09_PT038H.grib2 2026-04-19 08:50 526K
20260419T06Z_MSC_RDPS_SpecificHumidity_IsbL-0350_RLatLon0.09_PT038H.grib2 2026-04-19 08:50 523K
20260419T06Z_MSC_RDPS_SpecificHumidity_IsbL-0400_RLatLon0.09_PT038H.grib2 2026-04-19 08:50 512K
20260419T06Z_MSC_RDPS_SpecificHumidity_IsbL-0450_RLatLon0.09_PT038H.grib2 2026-04-19 08:50 577K
20260419T06Z_MSC_RDPS_SpecificHumidity_IsbL-0500_RLatLon0.09_PT038H.grib2 2026-04-19 08:50 521K
20260419T06Z_MSC_RDPS_SpecificHumidity_IsbL-0550_RLatLon0.09_PT038H.grib2 2026-04-19 08:50 599K
20260419T06Z_MSC_RDPS_SpecificHumidity_IsbL-0600_RLatLon0.09_PT038H.grib2 2026-04-19 08:50 651K
20260419T06Z_MSC_RDPS_SpecificHumidity_IsbL-0650_RLatLon0.09_PT038H.grib2 2026-04-19 08:50 562K
20260419T06Z_MSC_RDPS_SpecificHumidity_IsbL-0700_RLatLon0.09_PT038H.grib2 2026-04-19 08:50 602K
20260419T06Z_MSC_RDPS_SpecificHumidity_IsbL-0750_RLatLon0.09_PT038H.grib2 2026-04-19 08:50 658K
20260419T06Z_MSC_RDPS_SpecificHumidity_IsbL-0800_RLatLon0.09_PT038H.grib2 2026-04-19 08:50 743K
20260419T06Z_MSC_RDPS_SpecificHumidity_IsbL-0850_RLatLon0.09_PT038H.grib2 2026-04-19 08:50 804K
20260419T06Z_MSC_RDPS_SpecificHumidity_IsbL-0875_RLatLon0.09_PT038H.grib2 2026-04-19 08:50 820K
20260419T06Z_MSC_RDPS_SpecificHumidity_IsbL-0900_RLatLon0.09_PT038H.grib2 2026-04-19 08:50 830K
20260419T06Z_MSC_RDPS_SpecificHumidity_IsbL-0925_RLatLon0.09_PT038H.grib2 2026-04-19 08:50 696K
20260419T06Z_MSC_RDPS_SpecificHumidity_IsbL-0950_RLatLon0.09_PT038H.grib2 2026-04-19 08:50 697K
20260419T06Z_MSC_RDPS_SpecificHumidity_IsbL-0970_RLatLon0.09_PT038H.grib2 2026-04-19 08:50 691K
20260419T06Z_MSC_RDPS_SpecificHumidity_IsbL-0985_RLatLon0.09_PT038H.grib2 2026-04-19 08:50 682K
20260419T06Z_MSC_RDPS_SpecificHumidity_IsbL-1000_RLatLon0.09_PT038H.grib2 2026-04-19 08:50 674K
20260419T06Z_MSC_RDPS_SpecificHumidity_IsbL-1015_RLatLon0.09_PT038H.grib2 2026-04-19 08:50 666K
20260419T06Z_MSC_RDPS_SpecificHumidity_Sfc_RLatLon0.09_PT038H.grib2 2026-04-19 08:50 338K
20260419T06Z_MSC_RDPS_StormRelativeHelicity_EtaL-10000_RLatLon0.09_PT038H.grib2 2026-04-19 08:50 1.1M
20260419T06Z_MSC_RDPS_StormSeverityIndex_EtaL-10000_RLatLon0.09_PT038H.grib2 2026-04-19 08:50 1.1M
20260419T06Z_MSC_RDPS_Thickness_IsbL-0850to0700_RLatLon0.09_PT038H.grib2 2026-04-19 08:50 182K
20260419T06Z_MSC_RDPS_Thickness_IsbL-1000to0500_RLatLon0.09_PT038H.grib2 2026-04-19 08:50 207K
20260419T06Z_MSC_RDPS_Thickness_IsbL-1000to0850_RLatLon0.09_PT038H.grib2 2026-04-19 08:50 192K
20260419T06Z_MSC_RDPS_TotalCloudCover_Sfc_RLatLon0.09_PT038H.grib2 2026-04-19 08:50 650K
20260419T06Z_MSC_RDPS_TotalTotalsIndex_Sfc_RLatLon0.09_PT038H.grib2 2026-04-19 08:50 2.4M
20260419T06Z_MSC_RDPS_UVIndex-ClearSky_Sfc_RLatLon0.09_PT038H.grib2 2026-04-19 08:50 211K
20260419T06Z_MSC_RDPS_UVIndex_Sfc_RLatLon0.09_PT038H.grib2 2026-04-19 08:50 496K
20260419T06Z_MSC_RDPS_UpwardLongwaveRadiationFlux_NTAtm_RLatLon0.09_PT038H.grib2 2026-04-19 08:50 375K
20260419T06Z_MSC_RDPS_UpwardShortwaveRadiationFlux_NTAtm_RLatLon0.09_PT038H.grib2 2026-04-19 08:50 536K
20260419T06Z_MSC_RDPS_VerticalVelocity_IsbL-0250_RLatLon0.09_PT038H.grib2 2026-04-19 08:50 557K
20260419T06Z_MSC_RDPS_VerticalVelocity_IsbL-0500_RLatLon0.09_PT038H.grib2 2026-04-19 08:50 552K
20260419T06Z_MSC_RDPS_VerticalVelocity_IsbL-0700_RLatLon0.09_PT038H.grib2 2026-04-19 08:50 642K
20260419T06Z_MSC_RDPS_VerticalVelocity_IsbL-0850_RLatLon0.09_PT038H.grib2 2026-04-19 08:50 712K
20260419T06Z_MSC_RDPS_VerticalWindShear_EtaL-6500_RLatLon0.09_PT038H.grib2 2026-04-19 08:50 1.2M
20260419T06Z_MSC_RDPS_WindChill_Sfc_RLatLon0.09_PT038H.grib2 2026-04-19 08:50 1.2M
20260419T06Z_MSC_RDPS_WindDir_AGL-10m_RLatLon0.09_PT038H.grib2 2026-04-19 08:50 963K
20260419T06Z_MSC_RDPS_WindDir_AGL-120m_RLatLon0.09_PT038H.grib2 2026-04-19 08:50 609K
20260419T06Z_MSC_RDPS_WindDir_AGL-40m_RLatLon0.09_PT038H.grib2 2026-04-19 08:50 629K
20260419T06Z_MSC_RDPS_WindDir_AGL-80m_RLatLon0.09_PT038H.grib2 2026-04-19 08:50 617K
20260419T06Z_MSC_RDPS_WindDir_IsbL-0001_RLatLon0.09_PT038H.grib2 2026-04-19 08:50 257K
20260419T06Z_MSC_RDPS_WindDir_IsbL-0005_RLatLon0.09_PT038H.grib2 2026-04-19 08:50 341K
20260419T06Z_MSC_RDPS_WindDir_IsbL-0010_RLatLon0.09_PT038H.grib2 2026-04-19 08:50 383K
20260419T06Z_MSC_RDPS_WindDir_IsbL-0020_RLatLon0.09_PT038H.grib2 2026-04-19 08:50 404K
20260419T06Z_MSC_RDPS_WindDir_IsbL-0030_RLatLon0.09_PT038H.grib2 2026-04-19 08:50 429K
20260419T06Z_MSC_RDPS_WindDir_IsbL-0050_RLatLon0.09_PT038H.grib2 2026-04-19 08:50 426K
20260419T06Z_MSC_RDPS_WindDir_IsbL-0100_RLatLon0.09_PT038H.grib2 2026-04-19 08:50 421K
20260419T06Z_MSC_RDPS_WindDir_IsbL-0150_RLatLon0.09_PT038H.grib2 2026-04-19 08:50 419K
20260419T06Z_MSC_RDPS_WindDir_IsbL-0175_RLatLon0.09_PT038H.grib2 2026-04-19 08:50 435K
20260419T06Z_MSC_RDPS_WindDir_IsbL-0200_RLatLon0.09_PT038H.grib2 2026-04-19 08:50 442K
20260419T06Z_MSC_RDPS_WindDir_IsbL-0225_RLatLon0.09_PT038H.grib2 2026-04-19 08:50 442K
20260419T06Z_MSC_RDPS_WindDir_IsbL-0250_RLatLon0.09_PT038H.grib2 2026-04-19 08:50 439K
20260419T06Z_MSC_RDPS_WindDir_IsbL-0275_RLatLon0.09_PT038H.grib2 2026-04-19 08:50 456K
20260419T06Z_MSC_RDPS_WindDir_IsbL-0300_RLatLon0.09_PT038H.grib2 2026-04-19 08:50 453K
20260419T06Z_MSC_RDPS_WindDir_IsbL-0350_RLatLon0.09_PT038H.grib2 2026-04-19 08:50 470K
20260419T06Z_MSC_RDPS_WindDir_IsbL-0400_RLatLon0.09_PT038H.grib2 2026-04-19 08:50 487K
20260419T06Z_MSC_RDPS_WindDir_IsbL-0450_RLatLon0.09_PT038H.grib2 2026-04-19 08:50 505K
20260419T06Z_MSC_RDPS_WindDir_IsbL-0500_RLatLon0.09_PT038H.grib2 2026-04-19 08:50 526K
20260419T06Z_MSC_RDPS_WindDir_IsbL-0550_RLatLon0.09_PT038H.grib2 2026-04-19 08:50 551K
20260419T06Z_MSC_RDPS_WindDir_IsbL-0600_RLatLon0.09_PT038H.grib2 2026-04-19 08:50 581K
20260419T06Z_MSC_RDPS_WindDir_IsbL-0650_RLatLon0.09_PT038H.grib2 2026-04-19 08:50 617K
20260419T06Z_MSC_RDPS_WindDir_IsbL-0700_RLatLon0.09_PT038H.grib2 2026-04-19 08:50 667K
20260419T06Z_MSC_RDPS_WindDir_IsbL-0750_RLatLon0.09_PT038H.grib2 2026-04-19 08:50 720K
20260419T06Z_MSC_RDPS_WindDir_IsbL-0800_RLatLon0.09_PT038H.grib2 2026-04-19 08:50 780K
20260419T06Z_MSC_RDPS_WindDir_IsbL-0850_RLatLon0.09_PT038H.grib2 2026-04-19 08:50 845K
20260419T06Z_MSC_RDPS_WindDir_IsbL-0875_RLatLon0.09_PT038H.grib2 2026-04-19 08:50 871K
20260419T06Z_MSC_RDPS_WindDir_IsbL-0900_RLatLon0.09_PT038H.grib2 2026-04-19 08:50 890K
20260419T06Z_MSC_RDPS_WindDir_IsbL-0925_RLatLon0.09_PT038H.grib2 2026-04-19 08:50 904K
20260419T06Z_MSC_RDPS_WindDir_IsbL-0950_RLatLon0.09_PT038H.grib2 2026-04-19 08:50 902K
20260419T06Z_MSC_RDPS_WindDir_IsbL-0970_RLatLon0.09_PT038H.grib2 2026-04-19 08:50 913K
20260419T06Z_MSC_RDPS_WindDir_IsbL-0985_RLatLon0.09_PT038H.grib2 2026-04-19 08:50 924K
20260419T06Z_MSC_RDPS_WindDir_IsbL-1000_RLatLon0.09_PT038H.grib2 2026-04-19 08:50 940K
20260419T06Z_MSC_RDPS_WindDir_IsbL-1015_RLatLon0.09_PT038H.grib2 2026-04-19 08:50 956K
20260419T06Z_MSC_RDPS_WindGust-Max_AGL-10m_RLatLon0.09_PT038H.grib2 2026-04-19 08:50 950K
20260419T06Z_MSC_RDPS_WindGust-Min_AGL-10m_RLatLon0.09_PT038H.grib2 2026-04-19 08:50 969K
20260419T06Z_MSC_RDPS_WindGust_AGL-10m_RLatLon0.09_PT038H.grib2 2026-04-19 08:50 1.0M
20260419T06Z_MSC_RDPS_WindSpeed_AGL-10m_RLatLon0.09_PT038H.grib2 2026-04-19 08:50 849K
20260419T06Z_MSC_RDPS_WindSpeed_AGL-120m_RLatLon0.09_PT038H.grib2 2026-04-19 08:50 551K
20260419T06Z_MSC_RDPS_WindSpeed_AGL-40m_RLatLon0.09_PT038H.grib2 2026-04-19 08:50 546K
20260419T06Z_MSC_RDPS_WindSpeed_AGL-80m_RLatLon0.09_PT038H.grib2 2026-04-19 08:50 553K
20260419T06Z_MSC_RDPS_WindSpeed_IsbL-0001_RLatLon0.09_PT038H.grib2 2026-04-19 08:50 248K
20260419T06Z_MSC_RDPS_WindSpeed_IsbL-0005_RLatLon0.09_PT038H.grib2 2026-04-19 08:50 298K
20260419T06Z_MSC_RDPS_WindSpeed_IsbL-0010_RLatLon0.09_PT038H.grib2 2026-04-19 08:50 315K
20260419T06Z_MSC_RDPS_WindSpeed_IsbL-0020_RLatLon0.09_PT038H.grib2 2026-04-19 08:50 335K
20260419T06Z_MSC_RDPS_WindSpeed_IsbL-0030_RLatLon0.09_PT038H.grib2 2026-04-19 08:50 337K
20260419T06Z_MSC_RDPS_WindSpeed_IsbL-0050_RLatLon0.09_PT038H.grib2 2026-04-19 08:50 372K
20260419T06Z_MSC_RDPS_WindSpeed_IsbL-0100_RLatLon0.09_PT038H.grib2 2026-04-19 08:50 450K
20260419T06Z_MSC_RDPS_WindSpeed_IsbL-0150_RLatLon0.09_PT038H.grib2 2026-04-19 08:50 379K
20260419T06Z_MSC_RDPS_WindSpeed_IsbL-0175_RLatLon0.09_PT038H.grib2 2026-04-19 08:50 406K
20260419T06Z_MSC_RDPS_WindSpeed_IsbL-0200_RLatLon0.09_PT038H.grib2 2026-04-19 08:50 441K
20260419T06Z_MSC_RDPS_WindSpeed_IsbL-0225_RLatLon0.09_PT038H.grib2 2026-04-19 08:50 446K
20260419T06Z_MSC_RDPS_WindSpeed_IsbL-0250_RLatLon0.09_PT038H.grib2 2026-04-19 08:50 448K
20260419T06Z_MSC_RDPS_WindSpeed_IsbL-0275_RLatLon0.09_PT038H.grib2 2026-04-19 08:50 461K
20260419T06Z_MSC_RDPS_WindSpeed_IsbL-0300_RLatLon0.09_PT038H.grib2 2026-04-19 08:50 455K
20260419T06Z_MSC_RDPS_WindSpeed_IsbL-0350_RLatLon0.09_PT038H.grib2 2026-04-19 08:50 464K
20260419T06Z_MSC_RDPS_WindSpeed_IsbL-0400_RLatLon0.09_PT038H.grib2 2026-04-19 08:50 470K
20260419T06Z_MSC_RDPS_WindSpeed_IsbL-0450_RLatLon0.09_PT038H.grib2 2026-04-19 08:50 474K
20260419T06Z_MSC_RDPS_WindSpeed_IsbL-0500_RLatLon0.09_PT038H.grib2 2026-04-19 08:50 462K
20260419T06Z_MSC_RDPS_WindSpeed_IsbL-0550_RLatLon0.09_PT038H.grib2 2026-04-19 08:50 464K
20260419T06Z_MSC_RDPS_WindSpeed_IsbL-0600_RLatLon0.09_PT038H.grib2 2026-04-19 08:50 593K
20260419T06Z_MSC_RDPS_WindSpeed_IsbL-0650_RLatLon0.09_PT038H.grib2 2026-04-19 08:50 617K
20260419T06Z_MSC_RDPS_WindSpeed_IsbL-0700_RLatLon0.09_PT038H.grib2 2026-04-19 08:50 691K
20260419T06Z_MSC_RDPS_WindSpeed_IsbL-0750_RLatLon0.09_PT038H.grib2 2026-04-19 08:50 681K
20260419T06Z_MSC_RDPS_WindSpeed_IsbL-0800_RLatLon0.09_PT038H.grib2 2026-04-19 08:50 731K
20260419T06Z_MSC_RDPS_WindSpeed_IsbL-0850_RLatLon0.09_PT038H.grib2 2026-04-19 08:50 782K
20260419T06Z_MSC_RDPS_WindSpeed_IsbL-0875_RLatLon0.09_PT038H.grib2 2026-04-19 08:50 799K
20260419T06Z_MSC_RDPS_WindSpeed_IsbL-0900_RLatLon0.09_PT038H.grib2 2026-04-19 08:50 810K
20260419T06Z_MSC_RDPS_WindSpeed_IsbL-0925_RLatLon0.09_PT038H.grib2 2026-04-19 08:50 818K
20260419T06Z_MSC_RDPS_WindSpeed_IsbL-0950_RLatLon0.09_PT038H.grib2 2026-04-19 08:50 865K
20260419T06Z_MSC_RDPS_WindSpeed_IsbL-0970_RLatLon0.09_PT038H.grib2 2026-04-19 08:50 867K
20260419T06Z_MSC_RDPS_WindSpeed_IsbL-0985_RLatLon0.09_PT038H.grib2 2026-04-19 08:50 865K
20260419T06Z_MSC_RDPS_WindSpeed_IsbL-1000_RLatLon0.09_PT038H.grib2 2026-04-19 08:50 861K
20260419T06Z_MSC_RDPS_WindSpeed_IsbL-1015_RLatLon0.09_PT038H.grib2 2026-04-19 08:50 853K
20260419T06Z_MSC_RDPS_WindU_AGL-10m_RLatLon0.09_PT038H.grib2 2026-04-19 08:50 441K
20260419T06Z_MSC_RDPS_WindU_AGL-120m_RLatLon0.09_PT038H.grib2 2026-04-19 08:50 423K
20260419T06Z_MSC_RDPS_WindU_AGL-40m_RLatLon0.09_PT038H.grib2 2026-04-19 08:50 544K
20260419T06Z_MSC_RDPS_WindU_AGL-80m_RLatLon0.09_PT038H.grib2 2026-04-19 08:50 542K
20260419T06Z_MSC_RDPS_WindU_IsbL-0001_RLatLon0.09_PT038H.grib2 2026-04-19 08:50 291K
20260419T06Z_MSC_RDPS_WindU_IsbL-0005_RLatLon0.09_PT038H.grib2 2026-04-19 08:50 336K
20260419T06Z_MSC_RDPS_WindU_IsbL-0010_RLatLon0.09_PT038H.grib2 2026-04-19 08:50 348K
20260419T06Z_MSC_RDPS_WindU_IsbL-0020_RLatLon0.09_PT038H.grib2 2026-04-19 08:50 334K
20260419T06Z_MSC_RDPS_WindU_IsbL-0030_RLatLon0.09_PT038H.grib2 2026-04-19 08:50 334K
20260419T06Z_MSC_RDPS_WindU_IsbL-0050_RLatLon0.09_PT038H.grib2 2026-04-19 08:50 363K
20260419T06Z_MSC_RDPS_WindU_IsbL-0100_RLatLon0.09_PT038H.grib2 2026-04-19 08:50 441K
20260419T06Z_MSC_RDPS_WindU_IsbL-0150_RLatLon0.09_PT038H.grib2 2026-04-19 08:50 371K
20260419T06Z_MSC_RDPS_WindU_IsbL-0175_RLatLon0.09_PT038H.grib2 2026-04-19 08:50 419K
20260419T06Z_MSC_RDPS_WindU_IsbL-0200_RLatLon0.09_PT038H.grib2 2026-04-19 08:50 433K
20260419T06Z_MSC_RDPS_WindU_IsbL-0225_RLatLon0.09_PT038H.grib2 2026-04-19 08:50 437K
20260419T06Z_MSC_RDPS_WindU_IsbL-0250_RLatLon0.09_PT038H.grib2 2026-04-19 08:50 339K
20260419T06Z_MSC_RDPS_WindU_IsbL-0275_RLatLon0.09_PT038H.grib2 2026-04-19 08:50 350K
20260419T06Z_MSC_RDPS_WindU_IsbL-0300_RLatLon0.09_PT038H.grib2 2026-04-19 08:50 345K
20260419T06Z_MSC_RDPS_WindU_IsbL-0350_RLatLon0.09_PT038H.grib2 2026-04-19 08:50 376K
20260419T06Z_MSC_RDPS_WindU_IsbL-0400_RLatLon0.09_PT038H.grib2 2026-04-19 08:50 355K
20260419T06Z_MSC_RDPS_WindU_IsbL-0450_RLatLon0.09_PT038H.grib2 2026-04-19 08:50 359K
20260419T06Z_MSC_RDPS_WindU_IsbL-0500_RLatLon0.09_PT038H.grib2 2026-04-19 08:50 466K
20260419T06Z_MSC_RDPS_WindU_IsbL-0550_RLatLon0.09_PT038H.grib2 2026-04-19 08:50 469K
20260419T06Z_MSC_RDPS_WindU_IsbL-0600_RLatLon0.09_PT038H.grib2 2026-04-19 08:50 479K
20260419T06Z_MSC_RDPS_WindU_IsbL-0650_RLatLon0.09_PT038H.grib2 2026-04-19 08:50 500K
20260419T06Z_MSC_RDPS_WindU_IsbL-0700_RLatLon0.09_PT038H.grib2 2026-04-19 08:50 527K
20260419T06Z_MSC_RDPS_WindU_IsbL-0750_RLatLon0.09_PT038H.grib2 2026-04-19 08:50 543K
20260419T06Z_MSC_RDPS_WindU_IsbL-0800_RLatLon0.09_PT038H.grib2 2026-04-19 08:50 588K
20260419T06Z_MSC_RDPS_WindU_IsbL-0850_RLatLon0.09_PT038H.grib2 2026-04-19 08:50 642K
20260419T06Z_MSC_RDPS_WindU_IsbL-0875_RLatLon0.09_PT038H.grib2 2026-04-19 08:50 656K
20260419T06Z_MSC_RDPS_WindU_IsbL-0900_RLatLon0.09_PT038H.grib2 2026-04-19 08:50 665K
20260419T06Z_MSC_RDPS_WindU_IsbL-0925_RLatLon0.09_PT038H.grib2 2026-04-19 08:50 665K
20260419T06Z_MSC_RDPS_WindU_IsbL-0950_RLatLon0.09_PT038H.grib2 2026-04-19 08:50 662K
20260419T06Z_MSC_RDPS_WindU_IsbL-0970_RLatLon0.09_PT038H.grib2 2026-04-19 08:50 662K
20260419T06Z_MSC_RDPS_WindU_IsbL-0985_RLatLon0.09_PT038H.grib2 2026-04-19 08:50 803K
20260419T06Z_MSC_RDPS_WindU_IsbL-1000_RLatLon0.09_PT038H.grib2 2026-04-19 08:50 802K
20260419T06Z_MSC_RDPS_WindU_IsbL-1015_RLatLon0.09_PT038H.grib2 2026-04-19 08:50 794K
20260419T06Z_MSC_RDPS_WindV_AGL-10m_RLatLon0.09_PT038H.grib2 2026-04-19 08:50 436K
20260419T06Z_MSC_RDPS_WindV_AGL-120m_RLatLon0.09_PT038H.grib2 2026-04-19 08:50 417K
20260419T06Z_MSC_RDPS_WindV_AGL-40m_RLatLon0.09_PT038H.grib2 2026-04-19 08:50 537K
20260419T06Z_MSC_RDPS_WindV_AGL-80m_RLatLon0.09_PT038H.grib2 2026-04-19 08:50 419K
20260419T06Z_MSC_RDPS_WindV_IsbL-0001_RLatLon0.09_PT038H.grib2 2026-04-19 08:50 266K
20260419T06Z_MSC_RDPS_WindV_IsbL-0005_RLatLon0.09_PT038H.grib2 2026-04-19 08:50 332K
20260419T06Z_MSC_RDPS_WindV_IsbL-0010_RLatLon0.09_PT038H.grib2 2026-04-19 08:50 347K
20260419T06Z_MSC_RDPS_WindV_IsbL-0020_RLatLon0.09_PT038H.grib2 2026-04-19 08:50 367K
20260419T06Z_MSC_RDPS_WindV_IsbL-0030_RLatLon0.09_PT038H.grib2 2026-04-19 08:50 333K
20260419T06Z_MSC_RDPS_WindV_IsbL-0050_RLatLon0.09_PT038H.grib2 2026-04-19 08:50 366K
20260419T06Z_MSC_RDPS_WindV_IsbL-0100_RLatLon0.09_PT038H.grib2 2026-04-19 08:50 341K
20260419T06Z_MSC_RDPS_WindV_IsbL-0150_RLatLon0.09_PT038H.grib2 2026-04-19 08:50 392K
20260419T06Z_MSC_RDPS_WindV_IsbL-0175_RLatLon0.09_PT038H.grib2 2026-04-19 08:50 323K
20260419T06Z_MSC_RDPS_WindV_IsbL-0200_RLatLon0.09_PT038H.grib2 2026-04-19 08:50 335K
20260419T06Z_MSC_RDPS_WindV_IsbL-0225_RLatLon0.09_PT038H.grib2 2026-04-19 08:50 337K
20260419T06Z_MSC_RDPS_WindV_IsbL-0250_RLatLon0.09_PT038H.grib2 2026-04-19 08:50 363K
20260419T06Z_MSC_RDPS_WindV_IsbL-0275_RLatLon0.09_PT038H.grib2 2026-04-19 08:50 373K
20260419T06Z_MSC_RDPS_WindV_IsbL-0300_RLatLon0.09_PT038H.grib2 2026-04-19 08:50 368K
20260419T06Z_MSC_RDPS_WindV_IsbL-0350_RLatLon0.09_PT038H.grib2 2026-04-19 08:50 375K
20260419T06Z_MSC_RDPS_WindV_IsbL-0400_RLatLon0.09_PT038H.grib2 2026-04-19 08:50 379K
20260419T06Z_MSC_RDPS_WindV_IsbL-0450_RLatLon0.09_PT038H.grib2 2026-04-19 08:50 357K
20260419T06Z_MSC_RDPS_WindV_IsbL-0500_RLatLon0.09_PT038H.grib2 2026-04-19 08:50 362K
20260419T06Z_MSC_RDPS_WindV_IsbL-0550_RLatLon0.09_PT038H.grib2 2026-04-19 08:50 467K
20260419T06Z_MSC_RDPS_WindV_IsbL-0600_RLatLon0.09_PT038H.grib2 2026-04-19 08:50 477K
20260419T06Z_MSC_RDPS_WindV_IsbL-0650_RLatLon0.09_PT038H.grib2 2026-04-19 08:50 498K
20260419T06Z_MSC_RDPS_WindV_IsbL-0700_RLatLon0.09_PT038H.grib2 2026-04-19 08:50 510K
20260419T06Z_MSC_RDPS_WindV_IsbL-0750_RLatLon0.09_PT038H.grib2 2026-04-19 08:50 540K
20260419T06Z_MSC_RDPS_WindV_IsbL-0800_RLatLon0.09_PT038H.grib2 2026-04-19 08:50 583K
20260419T06Z_MSC_RDPS_WindV_IsbL-0850_RLatLon0.09_PT038H.grib2 2026-04-19 08:50 626K
20260419T06Z_MSC_RDPS_WindV_IsbL-0875_RLatLon0.09_PT038H.grib2 2026-04-19 08:50 641K
20260419T06Z_MSC_RDPS_WindV_IsbL-0900_RLatLon0.09_PT038H.grib2 2026-04-19 08:50 651K
20260419T06Z_MSC_RDPS_WindV_IsbL-0925_RLatLon0.09_PT038H.grib2 2026-04-19 08:50 657K
20260419T06Z_MSC_RDPS_WindV_IsbL-0950_RLatLon0.09_PT038H.grib2 2026-04-19 08:50 793K
20260419T06Z_MSC_RDPS_WindV_IsbL-0970_RLatLon0.09_PT038H.grib2 2026-04-19 08:50 793K
20260419T06Z_MSC_RDPS_WindV_IsbL-0985_RLatLon0.09_PT038H.grib2 2026-04-19 08:50 793K
20260419T06Z_MSC_RDPS_WindV_IsbL-1000_RLatLon0.09_PT038H.grib2 2026-04-19 08:50 792K
20260419T06Z_MSC_RDPS_WindV_IsbL-1015_RLatLon0.09_PT038H.grib2 2026-04-19 08:50 787K